Time,TemperatureF,DewpointF,PressureIn,WindDirection,WindDirectionDegrees,WindSpeedMPH,WindSpeedGustMPH,Humidity,HourlyPrecipIn,Conditions,Clouds,dailyrainin,SolarRadiationWatts/m^2,SoftwareType,DateUTC
2013-02-21 00:01:00,-2.0,-8.0,-100.00,WNW,296,5.0,6.0,75,0.00,,,0.00,1.000000,,2013-02-21 09:01:00,
2013-02-21 00:11:00,-2.0,-8.0,-100.00,WNW,296,5.0,6.0,75,0.00,,,0.00,1.000000,,2013-02-21 09:11:00,
2013-02-21 00:22:00,-2.0,-8.0,-100.00,WNW,296,5.0,6.0,75,0.00,,,0.00,1.000000,,2013-02-21 09:22:00,
2013-02-21 00:52:00,-2.0,-8.0,-100.00,WNW,293,6.0,9.0,75,0.00,,,0.00,1.000000,,2013-02-21 09:52:00,
2013-02-21 01:01:00,-2.0,-8.0,-100.00,WNW,293,6.0,9.0,75,0.00,,,0.00,1.000000,,2013-02-21 10:01:00,
2013-02-21 01:11:00,-2.0,-8.0,-100.00,WNW,293,6.0,9.0,75,0.00,,,0.00,1.000000,,2013-02-21 10:11:00,
2013-02-21 01:21:00,-2.0,-8.0,-100.00,WNW,293,6.0,9.0,75,0.00,,,0.00,1.000000,,2013-02-21 10:21:00,
2013-02-21 01:51:00,-3.0,-9.0,-100.00,NW,308,6.0,9.0,74,0.00,,,0.00,1.000000,,2013-02-21 10:51:00,
2013-02-21 02:01:00,-3.0,-9.0,-100.00,NW,308,6.0,9.0,74,0.00,,,0.00,1.000000,,2013-02-21 11:01:00,
2013-02-21 02:11:00,-3.0,-9.0,-100.00,NW,308,6.0,9.0,74,0.00,,,0.00,1.000000,,2013-02-21 11:11:00,
2013-02-21 02:21:00,-3.0,-9.0,-100.00,NW,308,6.0,9.0,74,0.00,,,0.00,1.000000,,2013-02-21 11:21:00,
2013-02-21 02:52:00,-5.0,-11.0,-100.00,WNW,295,5.0,9.0,73,0.00,,,0.00,1.000000,,2013-02-21 11:52:00,
2013-02-21 03:01:00,-5.0,-11.0,-100.00,WNW,295,5.0,9.0,73,0.00,,,0.00,1.000000,,2013-02-21 12:01:00,
2013-02-21 03:11:00,-5.0,-11.0,-100.00,WNW,295,5.0,9.0,73,0.00,,,0.00,1.000000,,2013-02-21 12:11:00,
2013-02-21 03:21:00,-5.0,-11.0,-100.00,WNW,295,5.0,9.0,73,0.00,,,0.00,1.000000,,2013-02-21 12:21:00,
2013-02-21 03:52:00,-4.0,-10.0,-100.00,WNW,293,4.0,8.0,73,0.00,,,0.00,1.000000,,2013-02-21 12:52:00,
2013-02-21 04:01:00,-4.0,-10.0,-100.00,WNW,293,4.0,8.0,73,0.00,,,0.00,1.000000,,2013-02-21 13:01:00,
2013-02-21 04:12:00,-4.0,-10.0,-100.00,WNW,293,4.0,8.0,73,0.00,,,0.00,1.000000,,2013-02-21 13:12:00,
2013-02-21 04:22:00,-4.0,-10.0,-100.00,WNW,293,4.0,8.0,73,0.00,,,0.00,1.000000,,2013-02-21 13:22:00,
2013-02-21 04:52:00,-4.0,-10.0,-100.00,West,261,2.0,5.0,73,0.00,,,-99.99,1.000000,,2013-02-21 13:52:00,
2013-02-21 05:02:00,-4.0,-10.0,-100.00,West,261,2.0,5.0,73,0.00,,,-99.99,1.000000,,2013-02-21 14:02:00,
2013-02-21 05:11:00,-4.0,-10.0,-100.00,West,261,2.0,5.0,73,0.00,,,-99.99,1.000000,,2013-02-21 14:11:00,
2013-02-21 05:21:00,-4.0,-10.0,-100.00,West,261,2.0,5.0,73,0.00,,,-99.99,1.000000,,2013-02-21 14:21:00,
2013-02-21 05:52:00,-4.0,-10.0,-100.00,NW,308,2.0,3.0,73,0.00,,,0.00,1.000000,,2013-02-21 14:52:00,
2013-02-21 06:01:00,-4.0,-10.0,-100.00,NW,308,2.0,3.0,73,0.00,,,0.00,1.000000,,2013-02-21 15:01:00,
2013-02-21 06:12:00,-4.0,-10.0,-100.00,NW,308,2.0,3.0,73,0.00,,,0.00,1.000000,,2013-02-21 15:12:00,
2013-02-21 06:21:00,-4.0,-10.0,-100.00,NW,308,2.0,3.0,73,0.00,,,0.00,1.000000,,2013-02-21 15:21:00,
2013-02-21 06:52:00,-4.0,-10.0,-100.00,NW,318,2.0,3.0,74,0.00,,,0.00,1.000000,,2013-02-21 15:52:00,
2013-02-21 07:01:00,-4.0,-10.0,-100.00,NW,318,2.0,3.0,74,0.00,,,0.00,1.000000,,2013-02-21 16:01:00,
2013-02-21 07:12:00,-4.0,-10.0,-100.00,NW,318,2.0,3.0,74,0.00,,,0.00,1.000000,,2013-02-21 16:12:00,
2013-02-21 07:21:00,-4.0,-10.0,-100.00,NW,318,2.0,3.0,74,0.00,,,0.00,1.000000,,2013-02-21 16:21:00,
2013-02-21 07:52:00,-4.0,-10.0,-100.00,WNW,298,2.0,3.0,74,0.00,,,0.00,1.000000,,2013-02-21 16:52:00,
2013-02-21 08:01:00,-4.0,-10.0,-100.00,WNW,298,2.0,3.0,74,0.00,,,0.00,1.000000,,2013-02-21 17:01:00,
2013-02-21 08:11:00,-4.0,-10.0,-100.00,WNW,298,2.0,3.0,74,0.00,,,0.00,1.000000,,2013-02-21 17:11:00,
2013-02-21 08:21:00,-4.0,-10.0,-100.00,WNW,298,2.0,3.0,74,0.00,,,0.00,1.000000,,2013-02-21 17:21:00,
2013-02-21 08:52:00,-3.0,-9.0,-100.00,North,356,1.0,2.0,74,0.00,,,0.00,1.000000,,2013-02-21 17:52:00,
2013-02-21 09:01:00,-3.0,-9.0,-100.00,North,356,1.0,2.0,74,0.00,,,0.00,1.000000,,2013-02-21 18:01:00,
2013-02-21 09:11:00,-3.0,-9.0,-100.00,North,356,1.0,2.0,74,0.00,,,0.00,1.000000,,2013-02-21 18:11:00,
2013-02-21 09:22:00,-3.0,-9.0,-100.00,North,356,1.0,2.0,74,0.00,,,0.00,1.000000,,2013-02-21 18:22:00,
2013-02-21 09:52:00,-2.0,-9.0,-100.00,NNW,340,1.0,2.0,73,0.00,,,-99.99,9.000000,,2013-02-21 18:52:00,
2013-02-21 10:01:00,-2.0,-9.0,-100.00,NNW,340,1.0,2.0,73,0.00,,,-99.99,9.000000,,2013-02-21 19:01:00,
2013-02-21 10:11:00,-2.0,-9.0,-100.00,NNW,340,1.0,2.0,73,0.00,,,-99.99,9.000000,,2013-02-21 19:11:00,
2013-02-21 10:21:00,-2.0,-9.0,-100.00,NNW,340,1.0,2.0,73,0.00,,,-99.99,9.000000,,2013-02-21 19:21:00,
2013-02-21 10:52:00,0.0,-8.0,-100.00,ENE,66,4.0,6.0,68,0.00,,,0.00,39.000000,,2013-02-21 19:52:00,
2013-02-21 11:01:00,0.0,-8.0,-100.00,ENE,66,4.0,6.0,68,0.00,,,0.00,39.000000,,2013-02-21 20:01:00,
2013-02-21 11:11:00,0.0,-8.0,-100.00,ENE,66,4.0,6.0,68,0.00,,,0.00,39.000000,,2013-02-21 20:11:00,
2013-02-21 11:21:00,0.0,-8.0,-100.00,ENE,66,4.0,6.0,68,0.00,,,0.00,39.000000,,2013-02-21 20:21:00,
2013-02-21 11:53:00,2.0,-6.0,-100.00,East,94,3.0,5.0,68,0.00,,,0.00,46.000000,,2013-02-21 20:53:00,
2013-02-21 12:02:00,2.0,-6.0,-100.00,East,94,3.0,5.0,68,0.00,,,0.00,46.000000,,2013-02-21 21:02:00,
2013-02-21 12:11:00,2.0,-6.0,-100.00,East,94,3.0,5.0,68,0.00,,,0.00,46.000000,,2013-02-21 21:11:00,
2013-02-21 12:21:00,2.0,-6.0,-100.00,East,94,3.0,5.0,68,0.00,,,0.00,46.000000,,2013-02-21 21:21:00,
2013-02-21 12:52:00,4.0,-6.0,-100.00,ESE,102,3.0,7.0,63,0.00,,,0.00,73.000000,,2013-02-21 21:52:00,
2013-02-21 13:01:00,4.0,-6.0,-100.00,ESE,102,3.0,7.0,63,0.00,,,0.00,73.000000,,2013-02-21 22:01:00,
2013-02-21 13:11:00,4.0,-6.0,-100.00,ESE,102,3.0,7.0,63,0.00,,,0.00,73.000000,,2013-02-21 22:11:00,
2013-02-21 13:21:00,4.0,-6.0,-100.00,ESE,102,3.0,7.0,63,0.00,,,0.00,73.000000,,2013-02-21 22:21:00,
2013-02-21 13:52:00,6.0,-6.0,-100.00,SE,124,4.0,9.0,58,0.00,,,0.00,83.000000,,2013-02-21 22:52:00,
2013-02-21 14:01:00,6.0,-6.0,-100.00,SE,124,4.0,9.0,58,0.00,,,0.00,83.000000,,2013-02-21 23:01:00,
2013-02-21 14:11:00,6.0,-6.0,-100.00,SE,124,4.0,9.0,58,0.00,,,0.00,83.000000,,2013-02-21 23:11:00,
2013-02-21 14:21:00,6.0,-6.0,-100.00,SE,124,4.0,9.0,58,0.00,,,0.00,83.000000,,2013-02-21 23:21:00,
2013-02-21 14:52:00,3.0,-7.0,-100.00,WSW,247,3.0,5.0,62,0.00,,,0.00,53.000000,,2013-02-21 23:52:00,
2013-02-21 15:01:00,3.0,-7.0,-100.00,WSW,247,3.0,5.0,62,0.00,,,0.00,53.000000,,2013-02-22 00:01:00,
2013-02-21 15:11:00,3.0,-7.0,-100.00,WSW,247,3.0,5.0,62,0.00,,,0.00,53.000000,,2013-02-22 00:11:00,
2013-02-21 15:21:00,3.0,-7.0,-100.00,WSW,247,3.0,5.0,62,0.00,,,0.00,53.000000,,2013-02-22 00:21:00,
2013-02-21 15:52:00,2.0,-8.0,-100.00,SW,218,4.0,6.0,63,0.00,,,0.00,44.000000,,2013-02-22 00:52:00,
2013-02-21 16:01:00,2.0,-8.0,-100.00,SW,218,4.0,6.0,63,0.00,,,0.00,44.000000,,2013-02-22 01:01:00,
2013-02-21 16:11:00,2.0,-8.0,-100.00,SW,218,4.0,6.0,63,0.00,,,0.00,44.000000,,2013-02-22 01:11:00,
2013-02-21 16:21:00,2.0,-8.0,-100.00,SW,218,4.0,6.0,63,0.00,,,0.00,44.000000,,2013-02-22 01:21:00,
2013-02-21 16:52:00,0.0,-8.0,-100.00,South,186,2.0,5.0,67,0.00,,,0.00,21.000000,,2013-02-22 01:52:00,
2013-02-21 17:02:00,0.0,-8.0,-100.00,South,186,2.0,5.0,67,0.00,,,0.00,21.000000,,2013-02-22 02:02:00,
2013-02-21 17:11:00,0.0,-8.0,-100.00,South,186,2.0,5.0,67,0.00,,,0.00,21.000000,,2013-02-22 02:11:00,
2013-02-21 17:21:00,0.0,-8.0,-100.00,South,186,2.0,5.0,67,0.00,,,0.00,21.000000,,2013-02-22 02:21:00,
2013-02-21 17:52:00,-2.0,-11.0,-100.00,South,174,3.0,4.0,65,0.00,,,0.00,14.000000,,2013-02-22 02:52:00,
2013-02-21 18:01:00,-2.0,-11.0,-100.00,South,174,3.0,4.0,65,0.00,,,0.00,14.000000,,2013-02-22 03:01:00,
2013-02-21 18:52:00,-6.0,-13.0,-100.00,SSE,166,3.0,4.0,70,0.00,,,0.00,2.000000,,2013-02-22 03:52:00,
2013-02-21 19:01:00,-6.0,-13.0,-100.00,SSE,166,3.0,4.0,70,0.00,,,0.00,2.000000,,2013-02-22 04:01:00,
2013-02-21 19:52:00,-8.0,-15.0,-100.00,South,174,4.0,5.0,70,0.00,,,0.00,1.000000,,2013-02-22 04:52:00,
2013-02-21 20:01:00,-8.0,-15.0,-100.00,South,174,4.0,5.0,70,0.00,,,0.00,1.000000,,2013-02-22 05:01:00,
2013-02-21 20:52:00,-10.0,-17.0,-100.00,SW,228,3.0,5.0,71,0.00,,,0.00,1.000000,,2013-02-22 05:52:00,
2013-02-21 21:01:00,-10.0,-17.0,-100.00,SW,228,3.0,5.0,71,0.00,,,0.00,1.000000,,2013-02-22 06:01:00,
2013-02-21 21:52:00,-7.0,-13.0,-100.00,WNW,301,6.0,7.0,75,0.00,,,0.00,1.000000,,2013-02-22 06:52:00,
2013-02-21 22:01:00,-7.0,-13.0,-100.00,WNW,301,6.0,7.0,75,0.00,,,0.00,1.000000,,2013-02-22 07:01:00,
2013-02-21 22:11:00,-7.0,-13.0,-100.00,WNW,301,6.0,7.0,75,0.00,,,0.00,1.000000,,2013-02-22 07:11:00,
2013-02-21 22:21:00,-7.0,-13.0,-100.00,WNW,301,6.0,7.0,75,0.00,,,0.00,1.000000,,2013-02-22 07:21:00,
2013-02-21 22:52:00,-8.0,-14.0,-100.00,WNW,292,5.0,7.0,73,0.00,,,0.00,1.000000,,2013-02-22 07:52:00,
2013-02-21 23:01:00,-8.0,-14.0,-100.00,WNW,292,5.0,7.0,73,0.00,,,0.00,1.000000,,2013-02-22 08:01:00,
2013-02-21 23:11:00,-8.0,-14.0,-100.00,WNW,292,5.0,7.0,73,0.00,,,0.00,1.000000,,2013-02-22 08:11:00,
2013-02-21 23:21:00,-8.0,-14.0,-100.00,WNW,292,5.0,7.0,73,0.00,,,0.00,1.000000,,2013-02-22 08:21:00,
2013-02-21 23:52:00,-9.0,-16.0,-100.00,WNW,292,4.0,6.0,72,0.00,,,0.00,1.000000,,2013-02-22 08:52:00,